Location: Newark
(25.0000°N, 73.5000°E)
Time: 04:39:24
(UTC+00:00)

RS-15 - Pass Details

Date: 23 February 2020
Orbit: 1898 x 2146 km, 64.8° (Epoch: 04 April)

Event Time Altitude Azimuth Distance (km) Brightness Sun altitude
Rises 17:12:30 0° 272° (W) 5,325 10.8 -56.3°
Reaches altitude 10° 17:20:00 10° 305° (NW) 4,294 10.2 -57.9°
Maximum altitude 17:22:44 11° 320° (NW) 4,201 10.0 -58.4°
Drops below altitude 10° 17:25:28 10° 335° (NNW) 4,286 10.0 -59.0°
Sets 17:33:02 0° 9° (N) 5,293 10.4 -60.5°
